Flag for U.S.A. Weather past 2 weeks in Boca Raton, Florida, U.S.A.

Now
78 °F

Clear.


Feels Like: 81 °F
Forecast: 76 / 88 °F
Wind: No wind

Location: Pompano Beach - Pompano Beach Airpark

Current Time: Aug 4, 2015 at 6:42:24 AM

Latest Report: Aug 4, 2015 at 5:53 AM


Visibility: 10 mi

Pressure: 30.02 "Hg

Humidity: 82%

Dew point: 72 °F

Location of Boca RatonLocation

Historic Weather in Boca Raton — Graph

°F

Boca Raton temperature yesterday

Maximum temperature yesterday: 89 °F (at 11:53 AM)
Minimum temperature yesterday: 75 °F (at 5:53 AM)
Average temperature yesterday: 82 °F

Past Weeks' High & Low Weather Summary

 TemperatureHumidityPressure
High95 °F (Jul 24, 1:53 PM)94% (Jul 26, 12:53 AM)30.07 "Hg (Jul 26, 12:53 AM)
Low75 °F (Aug 2, 7:53 PM)41% (Jul 24, 1:53 PM)29.88 "Hg (Jul 26, 4:53 AM)
Average83 °F73%29.99 "Hg
* Reported Jul 20 4:53 AM — Aug 4 4:53 AM, Boca Raton, Weather by CustomWeather, © 2015

Note: Actual official high and low records may vary slightly from our data, if they occured in-between our weather recording intervals... More about our weather records

Advertising

Boca Raton weather history for previous 24 hours

 ConditionsComfort  
Time TempWeatherWind HumidityBarometerVisibility
4:53 AM
Tue, Aug 4
77 °FClear.No wind85%30.01 "Hg10 mi
3:53 AM76 °FClear.No wind85%30.01 "Hg10 mi
2:53 AM76 °FClear.3 mph85%30.01 "Hg10 mi
1:53 AM77 °FClear.No wind85%30.02 "Hg10 mi
12:53 AM78 °FClear.No wind82%30.03 "Hg10 mi
11:53 PM
Mon, Aug 3
78 °FClear.No wind82%30.04 "Hg10 mi
10:53 PM78 °FClear.No wind82%30.04 "Hg10 mi
9:53 PM80 °FClear.No wind76%30.02 "Hg10 mi
8:53 PM80 °FSunny.No wind76%30.01 "Hg10 mi
7:53 PM80 °FSunny.No wind79%29.99 "Hg10 mi
6:53 PM81 °FSunny.5 mph74%29.98 "Hg10 mi
5:53 PM82 °FPassing clouds.7 mph74%30.00 "Hg10 mi
4:53 PM82 °FPartly sunny.15 mph67%30.00 "Hg10 mi
3:53 PM85 °FBroken clouds.8 mph59%29.98 "Hg10 mi
3:02 PM89 °FThundershowers. Broken clouds.17 mph59%30.00 "Hg10 mi
2:53 PM89 °FBroken clouds.18 mph61%29.98 "Hg10 mi
1:53 PM89 °FBroken clouds.17 mph59%29.99 "Hg10 mi
12:53 PM89 °FScattered clouds.14 mph57%30.01 "Hg10 mi
11:53 AM89 °FScattered clouds.14 mph61%30.02 "Hg10 mi
10:53 AM87 °FScattered clouds.12 mph63%30.01 "Hg10 mi
9:53 AM86 °FScattered clouds.12 mph65%30.00 "Hg10 mi
8:53 AM83 °FSunny.6 mph77%29.99 "Hg10 mi
7:53 AM79 °FSunny.5 mph88%29.97 "Hg10 mi
6:53 AM75 °FClear.No wind94%29.94 "Hg10 mi
Weather by CustomWeather, © 2015

See weather overviewHow to use our weather pages